PE4KH-1 Weather Reports


Display with metric or nautical units.
time (UTC)temp
F
wind
direction
speed
MPH
gust
MPH
rain 1hr
in
rain 24hr
in
rain mn
in
humidity
%
barometer
mb
20181019155304 63 0.0 0.0 0.00 0.00 0.00 64 1013.7
20181019154305 63 0.0 0.0 0.00 0.00 0.00 62 1013.5
20181019153302 63 0.0 0.0 0.00 0.00 0.00 61 1013.7
20181019152306 63 0.0 0.0 0.00 0.00 0.00 59 1013.7
20181019151302 64 0.0 0.0 0.00 0.00 0.00 58 1013.7
20181019150304 64 0.0 0.0 0.00 0.00 0.00 59 1013.9
20181019145302 64 0.0 0.0 0.00 0.00 0.00 58 1013.9
20181019144305 64 0.0 0.0 0.00 0.00 0.00 58 1013.7
20181019143303 64 0.0 0.0 0.00 0.00 0.00 58 1013.7
20181019142303 64 0.0 0.0 0.00 0.00 0.00 58 1013.7
20181019141302 64 0.0 0.0 0.00 0.00 0.00 58 1013.7
20181019140305 64 0.0 0.0 0.00 0.00 0.00 58 1013.7
20181019135306 64 0.0 0.0 0.00 0.00 0.00 58 1013.7
20181019134305 64 0.0 0.0 0.00 0.00 0.00 58 1013.9
20181019133303 64 0.0 0.0 0.00 0.00 0.00 59 1013.7
20181019132303 64 0.0 0.0 0.00 0.00 0.00 58 1013.9
20181019131303 64 0.0 0.0 0.00 0.00 0.00 58 1014.2
20181019130305 63 0.0 0.0 0.00 0.00 0.00 59 1014.2
20181019125305 63 0.0 0.0 0.00 0.00 0.00 59 1014.2
20181019124302 63 0.0 0.0 0.00 0.00 0.00 60 1014.2
20181019123307 63 0.0 0.0 0.00 0.00 0.00 60 1014.2
20181019122305 63 0.0 0.0 0.00 0.00 0.00 60 1014.2
20181019121304 62 0.0 0.0 0.00 0.00 0.00 60 1013.9
20181019120303 62 0.0 0.0 0.00 0.00 0.00 59 1014.2
20181019115303 62 0.0 0.0 0.00 0.00 0.00 61 1014.2
20181019114304 62 0.0 0.0 0.00 0.00 0.00 62 1014.4
20181019113303 61 0.0 0.0 0.00 0.00 0.00 62 1014.6
20181019112304 61 0.0 0.0 0.00 0.00 0.00 62 1014.6
20181019111304 61 0.0 0.0 0.00 0.00 0.00 63 1014.6
20181019110302 61 0.0 0.0 0.00 0.00 0.00 63 1014.6
20181019105306 60 0.0 0.0 0.00 0.00 0.00 65 1014.6
20181019104304 60 0.0 0.0 0.00 0.00 0.00 66 1014.6
20181019103306 59 0.0 0.0 0.00 0.00 0.00 67 1014.8
20181019102305 59 0.0 0.0 0.00 0.00 0.00 70 1014.8
20181019101307 58 0.0 0.0 0.00 0.00 0.00 70 1014.6
20181019100304 58 0.0 0.0 0.00 0.00 0.00 70 1014.8
20181019095306 58 0.0 0.0 0.00 0.00 0.00 72 1014.6
20181019094305 57 0.0 0.0 0.00 0.00 0.00 74 1014.8
20181019093305 57 0.0 0.0 0.00 0.00 0.00 74 1014.8
20181019092302 56 0.0 0.0 0.00 0.00 0.00 76 1014.8
20181019091303 55 0.0 0.0 0.00 0.00 0.00 77 1014.8
20181019090304 55 0.0 0.0 0.00 0.00 0.00 78 1015.0
20181019085304 54 0.0 0.0 0.00 0.00 0.00 79 1015.0
20181019084302 54 0.0 0.0 0.00 0.00 0.00 80 1015.0
20181019083303 54 0.0 0.0 0.00 0.00 0.00 80 1014.8
20181019082305 53 0.0 0.0 0.00 0.00 0.00 81 1014.8
20181019081306 53 0.0 0.0 0.00 0.00 0.00 82 1015.0
20181019080304 52 0.0 0.0 0.00 0.00 0.00 82 1015.0
20181019075305 52 0.0 0.0 0.00 0.00 0.00 82 1015.0
20181019074303 52 0.0 0.0 0.00 0.00 0.00 83 1015.0
20181019073303 51 0.0 0.0 0.00 0.00 0.00 83 1015.0
20181019072305 51 0.0 0.0 0.00 0.00 0.00 83 1015.0
20181019071306 51 0.0 0.0 0.00 0.00 0.00 83 1015.0
20181019070304 51 0.0 0.0 0.00 0.00 0.00 83 1014.8
20181019065304 51 0.0 0.0 0.00 0.00 0.00 83 1014.6
20181019064303 51 0.0 0.0 0.00 0.00 0.00 83 1014.8
20181019063302 51 0.0 0.0 0.00 0.00 0.00 83 1014.6
20181019062306 51 0.0 0.0 0.00 0.00 0.00 83 1014.6
20181019061304 51 0.0 0.0 0.00 0.00 0.00 82 1014.6
20181019060304 51 0.0 0.0 0.00 0.00 0.00 81 1014.6
20181019055304 51 0.0 0.0 0.00 0.00 0.00 81 1014.6
20181019054303 51 0.0 0.0 0.00 0.00 0.00 81 1014.6
20181019053308 52 0.0 0.0 0.00 0.00 0.00 81 1014.6
20181019052307 52 0.0 0.0 0.00 0.00 0.00 80 1014.6
20181019051304 52 0.0 0.0 0.00 0.00 0.00 80 1014.6
20181019050307 52 0.0 0.0 0.00 0.00 0.00 79 1014.6
20181019045303 52 0.0 0.0 0.00 0.00 0.00 79 1014.6
20181019044303 52 0.0 0.0 0.00 0.00 0.00 79 1014.6
20181019043302 52 0.0 0.0 0.00 0.00 0.00 79 1014.4
20181019042305 52 0.0 0.0 0.00 0.00 0.00 78 1014.6
20181019041302 52 0.0 0.0 0.00 0.00 0.00 79 1014.6
20181019040305 53 0.0 0.0 0.00 0.00 0.00 78 1014.6
20181019035306 53 0.0 0.0 0.00 0.00 0.00 78 1014.6
20181019034305 53 0.0 0.0 0.00 0.00 0.00 78 1014.6
20181019033305 53 0.0 0.0 0.00 0.00 0.00 77 1014.6
20181019032303 53 0.0 0.0 0.00 0.00 0.00 79 1014.6
20181019031304 53 0.0 0.0 0.00 0.00 0.00 79 1014.8
20181019030304 53 0.0 0.0 0.00 0.00 0.00 79 1014.8
20181019025305 53 0.0 0.0 0.00 0.00 0.00 79 1014.6
20181019024307 53 0.0 0.0 0.00 0.00 0.00 79 1014.6
20181019023305 53 0.0 0.0 0.00 0.00 0.00 79 1014.6
20181019022304 53 0.0 0.0 0.00 0.00 0.00 79 1014.6
20181019021303 53 0.0 0.0 0.00 0.00 0.00 79 1014.6
20181019020306 53 0.0 0.0 0.00 0.00 0.00 79 1014.6
20181019015304 53 0.0 0.0 0.00 0.00 0.00 81 1014.8
20181019014305 52 0.0 0.0 0.00 0.00 0.00 81 1014.6
20181019013304 52 0.0 0.0 0.00 0.00 0.00 81 1014.8
20181019012302 52 0.0 0.0 0.00 0.00 0.00 80 1014.8
20181019011305 52 0.0 0.0 0.00 0.00 0.00 80 1014.8
20181019010304 53 0.0 0.0 0.00 0.00 0.00 80 1014.8
20181019005306 53 0.0 0.0 0.00 0.00 0.00 80 1014.8
20181019004305 53 0.0 0.0 0.00 0.00 0.00 79 1015.0
20181019003307 53 0.0 0.0 0.00 0.00 0.00 79 1014.8
20181019002303 53 0.0 0.0 0.00 0.00 0.00 78 1014.8
20181019001307 53 0.0 0.0 0.00 0.00 0.00 78 1015.0
20181019000306 54 0.0 0.0 0.00 0.00 0.00 78 1014.8
20181018235305 54 0.0 0.0 0.00 0.00 0.00 77 1014.8
20181018234311 54 0.0 0.0 0.00 0.00 0.00 78 1015.0
20181018233305 54 0.0 0.0 0.00 0.00 0.00 77 1015.0
20181018232304 54 0.0 0.0 0.00 0.00 0.00 76 1015.0
20181018231305 55 0.0 0.0 0.00 0.00 0.00 76 1015.0
20181018230303 55 0.0 0.0 0.00 0.00 0.00 76 1015.0
20181018225302 55 0.0 0.0 0.00 0.00 0.00 76 1015.0
20181018223305 56 0.0 0.0 0.00 0.00 0.00 75 1015.0
20181018222304 56 0.0 0.0 0.00 0.00 0.00 75 1015.0
20181018221303 56 0.0 0.0 0.00 0.00 0.00 74 1015.3
20181018220305 56 0.0 0.0 0.00 0.00 0.00 74 1015.0
20181018215302 56 0.0 0.0 0.00 0.00 0.00 74 1015.0
20181018214307 56 0.0 0.0 0.00 0.00 0.00 75 1015.3
20181018213313 57 0.0 0.0 0.00 0.00 0.00 74 1015.3
20181018212306 57 0.0 0.0 0.00 0.00 0.00 74 1015.0
20181018211306 57 0.0 0.0 0.00 0.00 0.00 74 1015.0
20181018210306 57 0.0 0.0 0.00 0.00 0.00 74 1015.0
20181018205306 57 0.0 0.0 0.00 0.00 0.00 75 1015.0
20181018204304 57 0.0 0.0 0.00 0.00 0.00 75 1015.0
20181018203303 57 0.0 0.0 0.00 0.00 0.00 75 1015.0
20181018202305 58 0.0 0.0 0.00 0.00 0.00 75 1015.0
20181018201303 58 0.0 0.0 0.00 0.00 0.00 75 1015.0
20181018200304 58 0.0 0.0 0.00 0.00 0.00 75 1015.0
20181018195305 58 0.0 0.0 0.00 0.00 0.00 75 1015.0
20181018194306 58 0.0 0.0 0.00 0.00 0.00 75 1015.0
20181018193306 58 0.0 0.0 0.00 0.00 0.00 74 1014.8
20181018192306 59 0.0 0.0 0.00 0.00 0.00 73 1014.8
20181018191302 59 0.0 0.0 0.00 0.00 0.00 73 1014.8
20181018190307 59 0.0 0.0 0.00 0.00 0.00 72 1014.8
20181018185305 60 0.0 0.0 0.00 0.00 0.00 73 1014.6
20181018184302 60 0.0 0.0 0.00 0.00 0.00 72 1014.6
20181018183303 60 0.0 0.0 0.00 0.00 0.00 72 1014.6
20181018182305 60 0.0 0.0 0.00 0.00 0.00 71 1014.6
20181018181304 60 0.0 0.0 0.00 0.00 0.00 71 1014.4
20181018180303 60 0.0 0.0 0.00 0.00 0.00 71 1014.2
20181018175302 60 0.0 0.0 0.00 0.00 0.00 70 1014.2
20181018174303 60 0.0 0.0 0.00 0.00 0.00 70 1014.2
20181018173305 61 0.0 0.0 0.00 0.00 0.00 69 1014.2
20181018172302 61 0.0 0.0 0.00 0.00 0.00 68 1014.4
20181018171305 61 0.0 0.0 0.00 0.00 0.00 67 1014.2
20181018170304 61 0.0 0.0 0.00 0.00 0.00 67 1014.2
20181018165302 62 0.0 0.0 0.00 0.00 0.00 66 1014.2
20181018164304 62 0.0 0.0 0.00 0.00 0.00 66 1014.2
20181018163303 62 0.0 0.0 0.00 0.00 0.00 65 1013.9
20181018162303 63 0.0 0.0 0.00 0.00 0.00 64 1013.9
20181018161304 63 0.0 0.0 0.00 0.00 0.00 63 1013.7